User: anonymous   Login
Location: Bainbridge
(30.9040°N, 84.5757°W)
Time: 14:31:54
(UTC+00:00)
Language:

Tiangong - Orbit

View from above orbital plane
View from above orbital plane
View from above satellite
View from above satellite

Ground track
Ground track

The orbit data is extracted from the following two-line orbital elements,

1 48274U 21035A   25343.19148778  .00028670  00000-0  36118-3 0  9993
2 48274  41.4681  38.2458 0008971   2.0907 357.9967 15.58939843263477
Epoch (UTC): 09 December 2025 04:35:44
Eccentricity: 0.0008971
inclination: 41.4681°
perigee height: 384 km
apogee height: 397 km
right ascension of ascending node: 38.2458°
argument of perigee: 2.0907°
revolutions per day: 15.58939843
mean anomaly at epoch: 357.9967°
orbit number at epoch: 26347

The dashed part of the orbit path shows where the satellite is in the earth's shadow,  

DLR